Simultaneous Nadir Overpasses (SNOs) Predictions

Prediction of SNOs between METOP-A and NOAA-19 Satellite Orbit:

Table of predicted SNOs for the next 14.0 days since TLE Epoch: 9/14/2018
Index Date (METOP-A) Time (METOP-A) Lat,Lon (METOP-A) SZA (METOP-A ) Date (NOAA-19) Time (NOAA-19) Lat,Lon (NOAA-19) SZA (NOAA-19 ) Distance(km) Time Diff (sec)
1 09/16/2018 19:06:43 -78.88, 82.93 103.41 09/16/2018 19:05:39 -78.90, 82.84 103.41 2.36 64
2 09/16/2018 19:57:23 78.89,-109.73 76.61 09/16/2018 19:56:38 78.88,-109.74 76.59 1.06 45
3 09/16/2018 20:48:05 -78.86, 57.45 103.41 09/16/2018 20:47:39 -78.86, 57.61 103.41 3.37 26
4 09/16/2018 21:38:45 78.86,-135.21 76.61 09/16/2018 21:38:39 78.87,-135.23 76.62 1.22 6
5 09/16/2018 22:29:26 -78.88, 32.22 103.36 09/16/2018 22:29:40 -78.86, 32.12 103.38 2.95 14
6 09/16/2018 23:20:07 78.84,-160.68 76.61 09/16/2018 23:20:40 78.87,-160.72 76.65 3.38 33
7 09/17/2018 00:10:48 -78.86, 6.74 103.36 09/17/2018 00:11:41 -78.86, 6.64 103.35 2.20 53
8 09/17/2018 01:01:28 78.86, 174.08 76.66 09/17/2018 01:02:40 78.84, 174.05 76.65 2.60 72
9 09/27/2018 15:15:32 -79.14, 142.33 98.84 09/27/2018 15:14:25 -79.16, 138.97 98.97 70.49 67
10 09/27/2018 16:06:18 78.93, -51.81 80.90 09/27/2018 16:05:14 78.90, -51.71 80.87 3.18 64
11 09/27/2018 16:57:00 -78.90, 115.38 99.12 09/27/2018 16:56:19 -78.93, 115.30 99.10 3.61 41
12 09/27/2018 17:47:39 78.90, -77.29 80.90 09/27/2018 17:47:14 78.90, -77.20 80.90 1.76 25
13 09/27/2018 18:38:20 -78.92, 90.15 99.07 09/27/2018 18:38:18 -78.90, 90.06 99.09 3.10 2
14 09/27/2018 19:29:01 78.88,-102.76 80.90 09/27/2018 19:29:15 78.90,-102.69 80.93 2.39 14
15 09/27/2018 20:19:42 -78.90, 64.67 99.07 09/27/2018 20:20:19 -78.90, 64.58 99.07 2.04 37
16 09/27/2018 21:10:22 78.90,-128.00 80.95 09/27/2018 21:11:16 78.90,-128.18 80.95 4.03 54
17 09/27/2018 22:01:04 -78.88, 39.19 99.07 09/27/2018 22:02:19 -78.86, 39.34 99.06 3.75 75




NCC Satellite Simultaneous Nadir Overpasses (SNOs) Prediction Service
